Probability
0 0 0 0 0 0 0 0 0 0 0 0 0 0 0 0 0 0 0 0 0 0 0 0 0 0 0 0 0 0 0 0 0 0 0 0 0 0 0 0 0 0 0
0 0 0 0 0 0 0 0 0 0 0 0 0 0 0 0 0 0 0 0 0 0 0 0 0 0 0 0 0 0 0 0 0 0 0 0 0 0 0 0 0 0 0
0 0 0 0 0 0 0 0 0 0 0 0 0 0 0 0 0 0 0 0 0 0 0 0 0 0 0 0 0 0 0 0 0 0 0 0 0 0 0 0 0 0 0
0 0 0 0 0 0 0 0 0 0 0 0 0 0 0 0 0 0 0 0 0 0 0 0 0 0 0 0 0 0 0 0 0 0 0 0 0 0 0 0 0 0 0
0 0 0 0 0 0 0 0 0 0 0 0 0 0 0 0 0 0 0 0 0 0 0 0 0 0 0 0 0 0 0 0 0 0 0 0 0 0 0 0 0 0 0
1 1 1 1 0 0 0 0 0 0 0 0 0 0 0 0 0 0 0 0 0 0 0 0 0 0 0 0 0 0 0 0 0 0 0 0 0 0 0 0 0 0 0
9 7 5 4 2 0 0 0 0 0 0 0 0 0 0 0 0 0 0 0 0 0 0 0 0 0 0 0 0 0 0 0 0 0 0 0 0 0 0 0 0 0 0
19 15 13 11 7 3 1 0 0 0 0 0 0 0 0 0 0 0 0 0 0 0 0 0 0 0 0 0 0 0 0 0 0 0 0 0 0 0 0 0 0 0 0
27 22 18 15 12 7 3 1 0 0 0 0 0 0 0 0 0 0 0 0 0 0 0 0 0 0 0 0 0 0 0 0 0 0 0 0 0 0 0 0 0 0 0
36 30 22 18 15 10 6 4 2 0 0 0 0 0 0 0 0 0 0 0 0 0 0 0 0 0 0 0 0 0 0 0 0 0 0 0 0 0 0 0 0 0 0
46 40 32 26 20 13 9 7 5 2 0 0 0 0 0 0 0 0 0 0 0 0 0 0 0 0 0 0 0 0 0 0 0 0 0 0 0 0 0 0 0 0 0
45 42 38 32 24 15 10 9 7 4 1 0 0 0 0 0 0 0 0 0 0 0 0 0 0 0 0 0 0 0 0 0 0 0 0 0 0 0 0 0 0 0 0
33 33 33 29 22 15 12 11 9 4 2 0 0 0 0 0 0 0 0 0 0 0 0 0 0 0 0 0 0 0 0 0 0 0 0 0 0 0 0 0 0 0 0
19 21 23 22 20 15 12 11 8 4 1 0 0 0 0 0 0 0 0 0 0 0 0 0 0 0 0 0 0 0 0 0 0 0 0 0 0 0 0 0 0 0 0
8 11 15 17 17 13 9 7 5 2 1 0 0 0 0 0 0 0 0 0 0 0 0 0 0 0 0 0 0 0 0 0 0 0 0 0 0 0 0 0 0 0 0
3 5 9 12 12 10 6 4 2 1 0 0 0 0 0 0 0 0 0 0 0 0 0 0 0 0 0 0 0 0 0 0 0 0 0 0 0 0 0 0 0 0 0
1 2 4 6 7 6 4 2 0 0 0 0 0 0 0 0 0 0 0 0 0 0 0 0 0 0 0 0 0 0 0 0 0 0 0 0 0 0 0 0 0 0 0
0 0 1 3 3 2 1 0 0 0 0 0 0 0 0 0 0 0 0 0 0 0 0 0 0 0 0 0 0 0 0 0 0 0 0 0 0 0 0 0 0 0 0
0 0 0 1 1 0 0 0 0 0 0 0 0 0 0 0 0 0 0 0 0 0 0 0 0 0 0 0 0 0 0 0 0 0 0 0 0 0 0 0 0 0 0
0 0 0 0 0 0 0 0 0 0 0 0 0 0 0 0 0 0 0 0 0 0 0 0 0 0 0 0 0 0 0 0 0 0 0 0 0 0 0 0 0 0 0
0 0 0 0 0 0 0 0 0 0 0 0 0 0 0 0 0 0 0 0 0 0 0 0 0 0 0 0 0 0 0 0 0 0 0 0 0 0 0 0 0 0 0
0 0 0 0 0 0 0 0 0 0 0 0 0 0 0 0 0 0 0 0 0 0 0 0 0 0 0 0 0 0 0 0 0 0 0 0 0 0 0 0 0 0 0
0 0 0 0 0 0 0 0 0 0 0 0 0 0 0 0 0 0 0 0 0 0 0 0 0 0 0 0 0 0 0 0 0 0 0 0 0 0 0 0 0 0 0
0 0 0 0 0 0 0 0 0 0 0 0 0 0 0 0 0 0 0 0 0 0 0 0 0 0 0 0 0 0 0 0 0 0 0 0 0 0 0 0 0 0 0
0 0 0 0 0 0 0 0 0 0 0 0 0 0 0 0 0 0 0 0 0 0 0 0 0 0 0 0 0 0 0 0 0 0 0 0 0 0 0 0 0 0 0
0 0 0 0 0 0 0 0 0 0 0 0 0 0 0 0 0 0 0 0 0 0 0 0 0 0 0 0 0 0 0 0 0 0 0 0 0 0 0 0 0 0 0
Wind_Speed
8 7 6 6 7 6 6 6 6 6 6 6 5 5 6 5 5 4 5 7 8 9 8 7 6 6 5 6 6 6 6 6 6 7 7 7 7 7 8 8 8 9 9
8 8 8 7 7 7 7 6 7 6 6 5 6 6 6 5 5 6 5 8 8 9 9 8 6 5 5 5 5 5 5 5 5 5 6 6 7 7 7 8 8 9 9
11 10 9 8 8 8 9 7 8 6 5 5 6 6 5 6 6 6 6 6 7 7 8 8 7 6 5 4 4 4 4 4 4 5 5 6 6 7 7 8 8 9 10
13 11 9 9 9 8 8 8 7 7 6 6 6 5 5 5 7 7 7 6 6 6 7 8 8 7 5 3 3 3 3 3 4 5 5 6 6 7 8 9 9 10 11
15 13 10 10 11 9 9 8 8 8 8 7 6 5 5 6 6 7 8 8 7 7 6 8 7 6 5 3 2 2 2 3 4 5 6 7 8 9 10 10 11 12 12
15 14 11 12 12 10 10 10 10 9 7 7 6 5 5 5 6 7 8 8 7 8 8 8 7 6 6 4 2 1 3 4 5 6 7 8 9 10 11 12 13 13 14
14 14 11 13 12 12 13 13 11 11 8 7 5 5 5 6 7 7 7 8 9 9 9 8 6 6 5 5 2 0 3 4 6 7 8 10 11 12 13 14 15 15 16
15 13 15 12 13 12 14 14 13 9 8 9 7 5 5 7 8 8 8 8 9 8 9 9 8 7 5 4 3 1 2 4 6 8 9 11 12 14 15 16 17 17 18
16 15 16 14 13 13 13 15 16 16 11 10 9 8 6 8 5 6 9 8 9 8 8 8 8 7 6 3 3 4 0 3 6 8 10 12 14 15 17 18 19 19 19
15 15 15 15 14 12 14 14 16 14 14 10 9 8 6 3 5 5 5 6 8 8 8 6 7 6 6 4 3 2 1 3 6 9 11 14 16 17 19 19 20 20 20
13 14 14 14 14 13 14 14 14 16 13 12 9 7 7 3 4 4 4 5 5 5 5 5 5 5 5 4 4 3 2 3 7 10 13 16 18 19 20 20 21 21 21
9 13 13 13 13 12 14 14 13 15 13 13 10 8 7 6 7 6 5 4 4 3 3 2 3 3 4 4 4 3 2 4 8 12 15 17 19 19 20 21 21 21 22
8 10 10 11 11 11 11 11 11 12 13 12 11 8 7 4 3 4 4 4 3 2 3 3 2 3 4 3 3 4 4 6 10 13 16 18 19 19 20 21 22 22 22
8 9 10 10 10 10 8 8 7 8 8 9 9 8 5 4 3 4 5 5 4 2 3 4 2 3 3 3 3 4 5 9 12 15 17 18 19 19 20 21 22 22 23
6 8 8 8 7 7 8 7 6 7 7 7 6 6 5 4 3 3 3 4 5 5 4 4 3 4 3 3 4 5 7 10 13 16 17 18 19 20 21 21 22 22 23
5 5 5 5 5 5 6 6 6 7 8 7 6 8 7 5 5 4 4 4 3 3 3 2 3 3 4 4 6 7 9 13 15 16 17 18 19 20 21 22 22 22 23
2 2 2 3 4 5 6 7 8 9 10 9 8 9 9 8 6 5 5 4 3 3 2 1 2 2 4 6 6 7 8 9 9 15 17 19 20 20 21 21 21 22 22
3 3 3 5 6 7 7 9 10 10 11 11 10 10 9 7 7 5 4 4 3 2 1 2 3 3 6 7 8 9 8 8 9 14 18 19 20 20 20 20 21 21 22
7 7 7 7 8 8 9 9 10 10 10 10 10 10 9 8 7 4 4 3 2 2 2 3 3 4 5 5 7 8 9 9 9 11 15 17 18 18 19 20 21 22 22
10 10 10 10 10 10 10 11 11 11 11 10 9 8 7 6 6 5 3 3 2 3 4 4 4 5 5 6 6 7 8 8 9 9 12 13 15 18 20 21 22 22 22
11 11 11 11 11 10 10 11 11 11 11 10 9 8 6 6 5 3 2 2 3 3 3 4 4 5 5 5 6 6 8 9 10 9 8 8 9 10 12 15 18 19 20
11 12 11 11 11 10 16 17 12 10 9 9 8 7 6 5 4 2 0 2 3 3 4 4 5 6 7 7 7 7 8 9 9 6 8 10 10 11 10 10 15 20 22
11 11 11 12 12 14 17 17 15 10 8 7 6 5 3 3 2 0 1 2 2 4 6 6 7 8 8 7 8 9 9 10 11 10 11 12 11 12 10 11 19 22 23
9 9 10 10 10 12 16 15 14 9 7 6 4 3 2 1 1 3 3 3 4 5 5 6 7 8 8 8 9 10 11 11 12 10 10 11 10 11 11 11 17 21 22
9 8 8 9 9 10 12 11 8 5 4 4 3 2 2 2 3 5 4 4 6 6 5 8 11 12 14 14 12 8 8 8 10 9 7 7 8 11 11 11 12 17 19
8 8 8 8 7 7 9 9 5 3 3 2 1 2 2 4 6 6 5 5 6 6 6 7 8 9 9 9 10 8 7 7 7 7 5 5 8 8 8 7 8 9 12
Wind_Direction
202 200 203 200 205 203 199 205 206 195 197 193 194 197 193 194 190 180 145 143 143 144 144 141 134 125 113 100 88 77 65 56 48 40 34 29 24 18 13 9 7 3 359
209 205 209 207 209 208 209 209 211 204 202 199 197 200 201 196 198 192 169 148 143 148 154 153 145 134 123 105 92 80 62 50 40 29 20 13 9 3 358 356 353 348 344
214 211 214 211 210 209 209 212 210 210 204 199 202 201 202 204 200 195 186 172 160 153 162 163 154 145 131 112 92 78 62 43 25 10 359 352 349 345 341 339 336 334 332
216 215 217 215 211 207 206 205 203 204 203 205 204 196 200 200 206 200 191 188 180 172 168 166 163 156 146 128 95 66 48 25 3 348 339 333 330 326 324 323 322 322 321
216 216 219 217 211 208 208 204 206 208 207 205 205 198 202 202 202 202 203 195 190 188 179 158 157 154 157 151 112 40 12 355 340 330 323 320 318 315 313 312 312 312 311
218 218 219 219 212 208 208 205 204 207 212 197 191 199 207 209 209 208 207 199 193 193 194 180 173 159 163 161 147 4 340 331 325 319 314 313 310 308 307 306 306 306 305
220 218 219 218 212 212 210 207 202 201 200 182 178 196 210 219 220 212 210 204 198 196 196 193 195 185 171 163 159 325 321 315 315 312 309 308 306 304 303 302 302 301 300
223 218 219 218 213 214 214 209 201 200 191 187 191 192 211 208 216 214 209 211 206 196 201 200 198 197 195 191 138 145 312 313 311 309 308 307 307 306 303 301 300 300 299
225 222 222 221 216 213 214 210 204 203 197 196 203 198 203 219 184 188 210 209 208 202 202 199 200 196 197 197 182 163 215 310 309 308 310 309 308 305 302 300 299 298 298
229 226 225 224 220 216 217 213 209 211 207 197 205 226 243 257 189 177 188 207 210 211 204 194 193 187 189 184 169 154 190 299 306 310 311 308 305 303 301 299 298 297 297
232 229 227 226 224 221 221 217 210 212 212 206 195 193 207 228 239 206 183 176 194 209 208 197 188 180 177 177 180 164 205 296 309 311 308 306 304 301 300 299 299 298 297
238 233 228 228 227 224 223 220 214 212 213 214 202 193 187 187 198 205 200 170 173 163 186 195 189 174 170 171 169 158 237 297 307 307 305 303 302 302 302 300 298 297 295
242 237 230 231 230 227 224 219 215 212 211 211 206 201 204 197 162 173 167 144 140 135 166 186 190 174 173 178 170 188 244 285 299 302 301 301 302 303 301 298 296 294 292
255 250 238 234 232 228 219 210 207 205 203 204 201 190 178 163 150 150 152 145 144 155 183 180 165 185 181 187 192 237 265 279 291 296 297 299 300 299 296 294 293 292 291
265 256 246 235 226 216 205 193 192 185 176 178 169 156 141 128 119 116 122 140 152 171 196 177 174 186 193 204 221 258 274 279 287 291 293 294 295 294 293 291 290 289 288
270 257 246 227 206 188 177 166 154 151 149 144 139 136 125 118 106 98 97 88 92 136 168 158 175 172 194 230 250 267 275 282 281 285 287 290 291 291 289 288 287 286 286
300 267 213 174 154 146 144 140 138 139 135 129 129 127 120 119 112 100 93 92 86 93 147 171 187 200 233 254 263 268 274 279 281 282 285 289 290 289 288 287 286 285 284
42 61 97 111 113 119 124 128 129 129 129 127 125 120 117 113 105 103 106 108 108 113 166 223 219 225 246 262 273 277 279 279 279 284 287 289 288 288 287 286 285 284 284
63 70 80 89 95 101 105 109 112 112 110 111 115 116 117 117 115 114 115 120 129 155 198 235 248 246 255 262 275 277 279 280 281 283 286 286 287 287 286 286 286 285 285
67 71 76 80 85 89 93 97 99 100 98 96 95 98 102 110 118 127 132 145 165 197 216 237 256 263 267 271 275 284 291 292 292 291 286 285 285 285 284 283 283 283 283
67 72 76 78 81 83 88 93 93 95 96 93 87 86 90 101 117 129 146 178 203 224 240 253 263 272 275 282 286 296 295 299 296 289 286 287 288 285 285 283 281 279 280
69 72 73 75 74 80 91 92 94 91 92 94 94 92 94 91 93 90 137 248 249 255 262 268 274 277 283 289 296 296 297 298 299 295 299 296 293 288 286 283 284 286 285
72 75 76 78 80 85 88 90 89 88 88 89 93 97 98 92 73 302 280 278 280 285 279 281 278 279 288 294 295 292 289 289 286 291 296 290 291 288 287 285 287 286 286
72 73 75 80 85 88 90 89 89 87 91 92 91 86 77 55 2 310 295 291 285 277 278 276 276 282 284 288 285 283 285 285 283 280 279 284 289 290 293 290 288 286 285
74 72 73 75 81 87 91 93 91 92 92 90 79 52 10 338 325 304 297 295 294 289 277 276 281 283 286 286 287 285 281 282 288 291 291 282 290 299 295 287 284 284 283
79 79 74 72 78 85 89 90 79 74 73 66 48 19 358 328 321 319 309 298 295 303 303 292 284 280 280 279 275 265 268 273 280 289 288 284 293 308 298 282 286 290 288